Weather History for KPSC - November, 2013

Change the Weather History Date:

Tuesday, November 5, 2013

  Actual Average Record
Temperature  
Mean Temperature 40 °F 45 °F  
Max Temperature 46 °F 56 °F 68 °F (2012)
Min Temperature 33 °F 34 °F 11 °F (2003)
Degree Days  
Heating Degree Days 25 20  
Month to date heating degree days 98 97  
Since 1 July heating degree days 651 615  
Cooling Degree Days 0 0  
Month to date cooling degree days 0 0  
Year to date cooling degree days 995 710  
Moisture  
Dew Point 36 °F    
Average Humidity 81    
Maximum Humidity 92    
Minimum Humidity 70    
Precipitation  
Precipitation 0.07 in 0.04 in 0.56 in (1991)
Month to date precipitation 0.21 0.15  
Year to date precipitation 4.56 6.68  
Snow  
Snow 0.00 in - - ()
Snow Depth 0.00 in    
Sea Level Pressure  
Sea Level Pressure 30.18 in    
Wind  
Wind Speed 4 mph (NNW)    
Max Wind Speed 13 mph    
Max Gust Speed 14 mph    
Visibility 10 miles    
Events Rain    
T = Trace of Precipitation, MM = Missing Value Source: NWS Daily Summary

Daily Weather History Graph

Daily Weather History Graph

Search for Another Location

Airport or City:

Trip Planner

Search our weather history database for the weather conditions in past years. The results will help you decide how hot, cold, wet, or windy it might be!

Date:

Astronomy

Nov. 05, 2013 Rise Set
Actual Time 6:43 AM PST 4:35 PM PST
Civil Twilight 6:12 AM PST 5:07 PM PST
Nautical Twilight 5:36 AM PST 5:43 PM PST
Astronomical Twilight 5:01 AM PST 6:18 PM PST
Moon 9:08 AM PST (11/5) 6:37 PM PST (11/5)
Length of Visible Light 10h 55m
Length of Day
9h 51m
Waxing Crescent, 7% of the Moon is Illuminated
Nov 5
Waxing Crescent
Nov 9
First Quarter
Nov 17
Full
Nov 25
Last Quarter
Dec 2
New

Hourly Weather History & Observations

Time (PST) Temp. Windchill Dew Point Humidity Pressure Visibility Wind Dir Wind Speed Gust Speed Precip Events Conditions
12:53 AM 37.0 °F 31.6 °F 28.9 °F 73% 30.19 in 10.0 mi East 6.9 mph - N/A   Overcast
1:53 AM 37.9 °F - 28.9 °F 70% 30.18 in 10.0 mi Calm Calm - N/A   Overcast
2:53 AM 37.9 °F - 30.0 °F 73% 30.17 in 10.0 mi Calm Calm - 0.00 in   Overcast
3:53 AM 37.0 °F - 32.0 °F 82% 30.16 in 10.0 mi Calm Calm - 0.01 in Rain Light Rain
4:53 AM 37.0 °F 33.3 °F 35.1 °F 93% 30.15 in 9.0 mi ENE 4.6 mph - 0.03 in Rain Rain
5:53 AM 37.0 °F - 35.1 °F 93% 30.15 in 10.0 mi Calm Calm - 0.03 in Rain Light Rain
6:53 AM 37.0 °F 33.3 °F 36.0 °F 96% 30.15 in 10.0 mi NW 4.6 mph - 0.00 in   Overcast
7:53 AM 37.9 °F 33.5 °F 36.0 °F 93% 30.16 in 10.0 mi NW 5.8 mph - N/A   Overcast
8:53 AM 39.0 °F 32.8 °F 37.0 °F 93% 30.17 in 10.0 mi WNW 9.2 mph - 0.00 in   Overcast
9:53 AM 39.9 °F 33.4 °F 37.0 °F 89% 30.17 in 10.0 mi WNW 10.4 mph - N/A   Mostly Cloudy
10:53 AM 42.1 °F 36.6 °F 37.0 °F 82% 30.17 in 10.0 mi NNW 9.2 mph - N/A   Partly Cloudy
11:53 AM 42.1 °F 37.7 °F 36.0 °F 79% 30.16 in 10.0 mi WNW 6.9 mph - N/A   Scattered Clouds
12:53 PM 45.0 °F 42.6 °F 37.0 °F 74% 30.15 in 10.0 mi WNW 4.6 mph - N/A   Mostly Cloudy
1:53 PM 45.0 °F 41.8 °F 37.9 °F 76% 30.15 in 10.0 mi NNW 5.8 mph - N/A   Overcast
2:53 PM 46.0 °F 43.9 °F 37.9 °F 73% 30.14 in 10.0 mi NNW 4.6 mph - N/A   Overcast
3:53 PM 45.0 °F 41.8 °F 37.9 °F 76% 30.14 in 10.0 mi NNW 5.8 mph - N/A   Overcast
4:53 PM 44.1 °F 40.1 °F 37.9 °F 79% 30.15 in 10.0 mi NNW 6.9 mph - N/A   Overcast
5:53 PM 43.0 °F 39.5 °F 37.9 °F 82% 30.17 in 10.0 mi North 5.8 mph - N/A   Overcast
6:53 PM 43.0 °F 41.3 °F 37.9 °F 82% 30.18 in 10.0 mi North 3.5 mph - N/A   Overcast
7:53 PM 43.0 °F - 39.0 °F 86% 30.20 in 10.0 mi Calm Calm - N/A   Overcast
8:53 PM 43.0 °F - 39.0 °F 86% 30.22 in 10.0 mi Calm Calm - N/A   Overcast
9:53 PM 42.1 °F - 39.0 °F 89% 30.23 in 10.0 mi Calm Calm - N/A   Overcast
10:53 PM 39.9 °F - 37.0 °F 89% 30.24 in 10.0 mi Calm Calm - N/A   Mostly Cloudy
11:02 PM 39.2 °F - 37.4 °F 93% 30.23 in 10.0 mi Calm Calm - N/A   Scattered Clouds
11:53 PM 34.0 °F 31.0 °F 33.1 °F 96% 30.26 in 9.0 mi NNE 3.5 mph - N/A   Clear